Weather History for Syracuse, NY

Change the Weather History Date:

Thursday, July 21, 2011

  Actual Average Record
Temperature  
Mean Temperature 89 °F 72 °F  
Max Temperature 101 °F 82 °F 101 °F (2011)
Min Temperature 76 °F 61 °F 46 °F (1965)
Degree Days  
Heating Degree Days 0 0  
Month to date heating degree days 0 2  
Since 1 June heating degree days 21 63  
Since 1 July heating degree days 0 2  
Cooling Degree Days 24 7  
Month to date cooling degree days 226 139  
Year to date cooling degree days 468 282  
Since 1 June cooling degree days 372 252  
Growing Degree Days 38 (Base 50)    
Moisture  
Dew Point 72 °F    
Average Humidity 61    
Maximum Humidity 79    
Minimum Humidity 42    
Precipitation  
Precipitation 0.00 in 0.12 in 1.57 in (1988)
Month to date precipitation 2.02 2.57  
Year to date precipitation 24.70 19.81  
Snow  
Snow 0.00 in 0.00 in 0.00 in (2002)
Month to date snowfall 0.0 0.0  
Since 1 June snowfall 0.0 0.0  
Since 1 July snowfall 0.0 0.0  
Snow Depth 0.00 in    
Sea Level Pressure  
Sea Level Pressure 29.68 in    
Wind  
Wind Speed 11 mph (West)    
Max Wind Speed 26 mph    
Max Gust Speed 29 mph    
Visibility 10 miles    
Events      
T = Trace of Precipitation, MM = Missing Value Source: NWS Daily Summary

Daily Weather History Graph

Daily Weather History Graph

Search for Another Location

Airport:

Trip Planner

Search our weather history database for the weather conditions in past years. The results will help you decide how hot, cold, wet, or windy it might be!

Date:

Astronomy

Jul. 21, 2011 Rise Set
Actual Time 5:43 AM EDT 8:37 PM EDT
Civil Twilight 5:10 AM EDT 9:10 PM EDT
Nautical Twilight 4:27 AM EDT 9:53 PM EDT
Astronomical Twilight 3:37 AM EDT 10:42 PM EDT
Moon 11:20 PM EDT (7/21) 12:18 PM EDT (7/21)
Length of Visible Light 16h 00m
Length of Day
14h 53m
Waning Gibbous, 64% of the Moon is Illuminated
Jul 21
Waning Gibbous
Jul 23
Last Quarter
Jul 30
New
Aug 6
First Quarter
Aug 13
Full

Hourly Weather History & Observations

Time (EDT) Temp. Heat Index Dew Point Humidity Pressure Visibility Wind Dir Wind Speed Gust Speed Precip Events Conditions
12:54 AM 77.0 °F - 69.1 °F 76% 29.75 in 8.0 mi Calm Calm - N/A   Mostly Cloudy
1:54 AM 80.1 °F 82.7 °F 68.0 °F 67% 29.74 in 9.0 mi Calm Calm - N/A   Overcast
2:54 AM 75.9 °F - 68.0 °F 76% 29.73 in 8.0 mi ESE 3.5 mph - N/A   Overcast
3:54 AM 78.1 °F - 69.1 °F 74% 29.71 in 9.0 mi South 4.6 mph - N/A   Mostly Cloudy
4:54 AM 79.0 °F - 68.0 °F 69% 29.71 in 10.0 mi SW 8.1 mph - N/A   Scattered Clouds
5:54 AM 79.0 °F - 66.9 °F 66% 29.69 in 10.0 mi SW 6.9 mph - N/A   Scattered Clouds
6:54 AM 81.0 °F 83.3 °F 66.9 °F 62% 29.70 in 10.0 mi WSW 9.2 mph - N/A   Scattered Clouds
7:54 AM 84.0 °F 87.0 °F 68.0 °F 58% 29.69 in 10.0 mi WSW 10.4 mph - N/A   Scattered Clouds
8:54 AM 87.1 °F 91.3 °F 69.1 °F 55% 29.68 in 10.0 mi WSW 15.0 mph 21.9 mph N/A   Scattered Clouds
9:54 AM 90.0 °F 96.9 °F 72.0 °F 55% 29.67 in 10.0 mi West 10.4 mph 21.9 mph N/A   Mostly Cloudy
10:54 AM 93.0 °F 101.9 °F 73.0 °F 52% 29.66 in 10.0 mi West 12.7 mph 26.5 mph N/A   Mostly Cloudy
11:54 AM 95.0 °F 105.2 °F 73.9 °F 50% 29.65 in 10.0 mi West 18.4 mph 25.3 mph N/A   Scattered Clouds
12:54 PM 97.0 °F 109.3 °F 75.0 °F 49% 29.64 in 10.0 mi West 16.1 mph 27.6 mph N/A   Scattered Clouds
1:54 PM 100.0 °F 111.0 °F 73.0 °F 42% 29.63 in 10.0 mi West 23.0 mph 27.6 mph N/A   Scattered Clouds
2:54 PM 98.1 °F 108.0 °F 73.0 °F 44% 29.63 in 10.0 mi WNW 13.8 mph 25.3 mph N/A   Scattered Clouds
3:54 PM 98.1 °F 111.2 °F 75.0 °F 48% 29.63 in 10.0 mi North 12.7 mph 18.4 mph N/A   Mostly Cloudy
4:54 PM 99.0 °F 111.8 °F 75.0 °F 46% 29.63 in 10.0 mi NNW 10.4 mph 17.3 mph N/A   Scattered Clouds
5:54 PM 98.1 °F 108.0 °F 73.0 °F 44% 29.63 in 10.0 mi NW 15.0 mph 19.6 mph N/A   Partly Cloudy
6:54 PM 96.1 °F 107.1 °F 73.9 °F 49% 29.65 in 10.0 mi WNW 13.8 mph 19.6 mph N/A   Partly Cloudy
7:54 PM 93.9 °F 104.0 °F 73.9 °F 52% 29.66 in 10.0 mi WNW 10.4 mph - N/A   Partly Cloudy
8:54 PM 91.9 °F 100.7 °F 73.0 °F 54% 29.67 in 10.0 mi West 10.4 mph - N/A   Scattered Clouds
9:54 PM 91.0 °F 99.3 °F 73.0 °F 55% 29.69 in 10.0 mi West 12.7 mph - N/A   Scattered Clouds
10:54 PM 90.0 °F 99.0 °F 73.9 °F 59% 29.70 in 10.0 mi West 12.7 mph - N/A   Partly Cloudy
11:54 PM 89.1 °F 99.1 °F 75.0 °F 63% 29.72 in 10.0 mi West 9.2 mph - N/A   Partly Cloudy